TimeCST,TemperatureF,Dew PointF,Humidity,Sea Level PressureIn,VisibilityMPH,Wind Direction,Wind SpeedMPH,Gust SpeedMPH,PrecipitationIn,Events,Conditions,WindDirDegrees,DateUTC
12:26 AM,41.0,35.6,81,30.35,10.0,East,5.8,-,N/A,,Mostly Cloudy,80,2012-11-16 06:26:00
12:55 AM,43.7,36.7,76,30.35,10.0,East,5.8,-,N/A,,Mostly Cloudy,80,2012-11-16 06:55:00
1:55 AM,42.3,34.5,74,30.34,10.0,ENE,10.4,-,N/A,,Clear,70,2012-11-16 07:55:00
2:44 AM,42.8,33.8,70,30.35,10.0,ENE,5.8,-,N/A,,Mostly Cloudy,70,2012-11-16 08:44:00
2:55 AM,42.4,33.4,70,30.35,10.0,East,5.8,-,N/A,,Mostly Cloudy,80,2012-11-16 08:55:00
3:33 AM,42.8,33.8,70,30.35,10.0,East,6.9,-,N/A,,Scattered Clouds,90,2012-11-16 09:33:00
3:55 AM,41.9,33.3,71,30.35,10.0,East,5.8,-,N/A,,Partly Cloudy,80,2012-11-16 09:55:00
4:55 AM,37.2,32.2,82,30.35,10.0,NE,5.8,-,N/A,,Clear,40,2012-11-16 10:55:00
5:55 AM,35.6,31.1,84,30.37,10.0,NNE,8.1,-,N/A,,Clear,30,2012-11-16 11:55:00
6:55 AM,36.3,32.5,86,30.38,10.0,NE,8.1,-,N/A,,Clear,40,2012-11-16 12:55:00
7:55 AM,40.8,36.7,85,30.40,10.0,NE,10.4,-,N/A,,Clear,40,2012-11-16 13:55:00
8:55 AM,46.2,38.5,74,30.41,10.0,NE,8.1,-,N/A,,Clear,40,2012-11-16 14:55:00
9:55 AM,52.7,34.5,50,30.41,10.0,Variable,3.5,-,N/A,,Clear,0,2012-11-16 15:55:00
10:55 AM,55.9,32.7,41,30.42,10.0,Variable,4.6,-,N/A,,Clear,0,2012-11-16 16:55:00
11:55 AM,58.1,33.3,39,30.40,10.0,SE,8.1,-,N/A,,Clear,140,2012-11-16 17:55:00
12:55 PM,61.0,32.7,35,30.36,10.0,SSE,6.9,-,N/A,,Clear,160,2012-11-16 18:55:00
1:55 PM,63.0,34.3,34,30.33,10.0,SE,8.1,-,N/A,,Clear,130,2012-11-16 19:55:00
2:55 PM,63.5,35.2,35,30.31,10.0,ESE,10.4,-,N/A,,Clear,120,2012-11-16 20:55:00
3:55 PM,63.3,36.3,37,30.31,10.0,SE,9.2,-,N/A,,Clear,130,2012-11-16 21:55:00
4:55 PM,61.0,35.6,39,30.30,10.0,ESE,10.4,-,N/A,,Clear,120,2012-11-16 22:55:00
5:55 PM,54.9,34.5,46,30.31,10.0,ESE,8.1,-,N/A,,Clear,110,2012-11-16 23:55:00
6:55 PM,48.6,33.8,57,30.33,10.0,East,8.1,-,N/A,,Clear,100,2012-11-17 00:55:00
7:55 PM,47.3,33.1,58,30.32,10.0,East,6.9,-,N/A,,Clear,100,2012-11-17 01:55:00
8:55 PM,43.7,32.5,65,30.33,10.0,ESE,5.8,-,N/A,,Clear,120,2012-11-17 02:55:00
9:55 PM,42.6,32.0,66,30.33,10.0,ESE,9.2,-,N/A,,Clear,110,2012-11-17 03:55:00
10:55 PM,42.8,32.4,67,30.33,10.0,ESE,8.1,-,N/A,,Clear,120,2012-11-17 04:55:00
11:55 PM,43.2,31.3,63,30.33,10.0,SE,6.9,-,N/A,,Clear,130,2012-11-17 05:55:00